WA7BMK Weather Reports


Display with metric or nautical units.
time (UTC)temp
F
wind
direction
speed
MPH
gust
MPH
rain 1hr
in
rain 24hr
in
rain mn
in
humidity
%
barometer
mb
20260506153036 52 173 1.0 4.0 0.00 0.00 0.00 87 1020.0
20260506151549 51 0 1.0 5.0 0.00 0.00 0.00 87 1020.1
20260506150035 51 295 1.0 6.0 0.00 0.00 0.00 88 1020.3
20260506144535 51 319 1.0 6.0 0.00 0.00 0.00 88 1020.1
20260506143044 51 126 1.0 4.0 0.00 0.00 0.00 88 1019.6
20260506141530 51 0 0.0 5.0 0.00 0.00 0.00 88 1019.8
20260506140038 51 0 0.0 5.0 0.00 0.00 0.00 88 1019.9
20260506134536 51 0 1.0 6.0 0.00 0.00 0.00 88 1019.8
20260506133039 51 0 1.0 6.0 0.00 0.00 0.00 88 1019.7
20260506131537 51 244 1.0 5.0 0.00 0.00 0.00 87 1019.5
20260506130033 51 0 0.0 8.0 0.00 0.00 0.00 87 1019.4
20260506124530 52 209 2.0 7.0 0.00 0.00 0.00 87 1019.4
20260506123036 52 233 0.0 4.0 0.00 0.00 0.00 87 1019.3
20260506121533 52 0 0.0 5.0 0.00 0.00 0.00 87 1019.2
20260506120038 52 276 1.0 5.0 0.00 0.00 0.00 87 1019.0
20260506114542 52 163 1.0 5.0 0.00 0.00 0.00 88 1018.8
20260506113033 52 0 0.0 4.0 0.00 0.00 0.00 88 1019.0
20260506111537 52 190 0.0 3.0 0.00 0.00 0.00 87 1018.9
20260506110037 52 164 0.0 3.0 0.00 0.00 0.00 87 1018.8
20260506104537 52 0 0.0 3.0 0.00 0.00 0.00 86 1018.7
20260506103036 52 214 1.0 3.0 0.00 0.00 0.00 86 1018.5
20260506101549 53 198 0.0 2.0 0.00 0.00 0.00 86 1018.4
20260506100035 53 0 0.0 2.0 0.00 0.00 0.00 86 1018.2
20260506094546 53 0 0.0 2.0 0.00 0.00 0.00 86 1018.0
20260506093036 53 0 0.0 3.0 0.00 0.00 0.00 86 1018.0
20260506091536 53 209 1.0 3.0 0.00 0.00 0.00 86 1018.0
20260506090037 53 218 0.0 3.0 0.00 0.00 0.00 86 1018.0
20260506084533 52 0 0.0 3.0 0.00 0.00 0.00 87 1018.0
20260506083040 52 0 0.0 1.0 0.00 0.00 0.00 87 1018.0
20260506081536 52 0 0.0 2.0 0.00 0.00 0.00 87 1017.9
20260506073042 52 0 0.0 0.0 0.00 0.00 0.00 85 1017.6
20260506071548 52 0 0.0 3.0 0.00 0.00 0.00 85 1017.5
20260506061535 54 0 1.0 4.0 0.00 0.00 0.00 84 1017.1
20260506044534 55 0 0.0 0.0 0.00 0.00 0.00 83 1016.4
20260506043037 56 0 0.0 0.0 0.00 0.00 0.00 81 1016.4
20260506041546 58 0 0.0 0.0 0.00 0.00 0.00 79 1016.3
20260506040035 58 0 0.0 0.0 0.00 0.00 0.00 77 1016.2
20260506034535 59 0 0.0 0.0 0.00 0.00 0.00 76 1016.0
20260506033033 60 0 0.0 0.0 0.00 0.00 0.00 75 1015.8
20260506031536 61 0 0.0 1.0 0.00 0.00 0.00 74 1015.6
20260506030036 62 0 0.0 2.0 0.00 0.00 0.00 72 1015.5
20260506024540 63 0 0.0 4.0 0.00 0.00 0.00 71 1015.5
20260506023034 63 298 0.0 3.0 0.00 0.00 0.00 70 1015.5
20260506021534 64 0 0.0 3.0 0.00 0.00 0.00 68 1015.5
20260506020037 65 306 1.0 5.0 0.00 0.00 0.00 68 1015.4
20260506014545 65 256 1.0 4.0 0.00 0.00 0.00 67 1015.4
20260506013038 64 266 2.0 8.0 0.00 0.00 0.00 68 1015.4
20260506011541 65 277 1.0 7.0 0.00 0.00 0.00 68 1015.5
20260506010037 66 289 1.0 5.0 0.00 0.00 0.00 67 1015.5
20260506004541 66 267 2.0 4.0 0.00 0.00 0.00 67 1015.6
20260506003036 66 254 2.0 5.0 0.00 0.00 0.00 66 1015.6
20260506001544 66 296 1.0 7.0 0.00 0.00 0.00 66 1015.7
20260506000043 67 318 1.0 4.0 0.00 0.00 0.00 65 1015.8
20260505234548 66 55 1.0 5.0 0.00 0.00 0.00 65 1015.8
20260505233037 66 0 1.0 7.0 0.00 0.00 0.00 64 1016.0
20260505231547 65 199 2.0 7.0 0.00 0.00 0.00 66 1016.0
20260505230038 64 178 0.0 4.0 0.00 0.00 0.00 68 1016.1
20260505224539 65 0 1.0 6.0 0.00 0.00 0.00 67 1016.3
20260505223042 63 344 0.0 4.0 0.00 0.00 0.00 69 1016.5
20260505221539 63 273 1.0 8.0 0.00 0.00 0.00 70 1016.6
20260505220040 63 324 1.0 4.0 0.00 0.00 0.00 70 1016.6
20260505214548 62 282 0.0 3.0 0.00 0.00 0.00 72 1016.8
20260505213049 61 265 1.0 4.0 0.00 0.00 0.00 71 1016.9
20260505211537 61 141 3.0 6.0 0.00 0.00 0.00 71 1016.8
20260505210035 61 0 1.0 7.0 0.00 0.00 0.00 73 1016.9
20260505204537 61 304 1.0 6.0 0.00 0.00 0.00 72 1017.0
20260505203037 60 260 1.0 5.0 0.00 0.00 0.00 73 1017.0
20260505201547 60 227 1.0 7.0 0.00 0.00 0.00 72 1017.0
20260505200037 59 0 1.0 4.0 0.00 0.00 0.00 73 1017.0
20260505194537 59 0 0.0 5.0 0.00 0.00 0.00 75 1017.0
20260505193044 58 360 1.0 4.0 0.00 0.00 0.00 75 1017.0
20260505191534 57 158 2.0 6.0 0.00 0.00 0.00 76 1017.0
20260505190036 57 284 1.0 5.0 0.00 0.00 0.00 76 1017.0
20260505184537 57 170 1.0 6.0 0.00 0.00 0.00 77 1017.0
20260505183047 57 0 0.0 4.0 0.00 0.00 0.00 78 1017.1
20260505181535 57 225 1.0 6.0 0.00 0.00 0.00 78 1017.0
20260505180040 56 159 1.0 4.0 0.00 0.00 0.00 78 1016.8
20260505174540 56 360 1.0 4.0 0.00 0.00 0.00 79 1016.7
20260505173040 55 360 0.0 4.0 0.00 0.00 0.00 80 1016.7
20260505171541 55 360 0.0 5.0 0.00 0.00 0.00 80 1016.6
20260505170035 55 360 0.0 5.0 0.00 0.00 0.00 81 1016.6
20260505164538 55 360 0.0 4.0 0.00 0.00 0.00 81 1016.7
20260505163035 55 0 1.0 6.0 0.00 0.00 0.00 81 1016.5
20260505161536 55 360 0.0 3.0 0.00 0.00 0.00 81 1016.4